sat.trackr.live / text

‹ back to catalog

STARLINK-31098

NORAD 58716 · 2024-002M

PAYLOAD ACTIVE UNKNOWN

§ Identity

Operator
Country
US
Launch date
2024-01-03
Launch site
AFWTR
Launch vehicle
Mass (kg)
RCS (m²)

Purposes: comms

External: N2YO · Heavens-Above · Gunter

§ Orbital elements

Epoch: 2026-05-24T23:05:13.833888Z

Period
94.11 min
Inclination
53.1616°
Eccentricity
0.0001244
Mean motion
15.30192513 rev/d
Perigee alt
474.4 km
Apogee alt
476.1 km
Semi-major
6,853.4 km
B*
2.5135e-5
RAAN
235.6073°
Arg perigee
96.3202°
Mean anomaly
263.7941°
Rev number
13,369

§ Raw data

STARLINK-310981 58716U 24002M   26144.96196567  .00000385  00000+0  25135-4 0  99962 58716  53.1616 235.6073 0001244  96.3202 263.7941 15.30192513133694

JSON: /api/v1/satellites/58716 · /tle

For live sub-satellite position, see the globe view (requires WebGL).

§ Visibility from observer

Set your observer location to see the next 7 days of passes ≥ 10°. The values pass through the URL so the page stays shareable.

No JS? Fill the form by hand. The geolocation button needs JavaScript.